Home   Weather   Udon Thani   Past weeks

Flag for Thailand Past Weather in Udon Thani, Thailand — Yesterday and Last 2 Weeks

Now
93 °F

Partly sunny.


Feels Like: 110 °F
Forecast: 77 / 90 °F
Wind: No wind

Location: Udon Thani Airport

Current Time: Sep 27, 2016 at 3:52:05 PM

Latest Report: Sep 27, 2016 at 3:00 PM


Visibility: N/A

Pressure: 29.68 "Hg

Humidity: 63%

Dew Point: 79 °F

Location of Udon ThaniLocation

Past Weather in Udon Thani — Graph

°F

Udon Thani Temperature Yesterday

Maximum temperature yesterday: 90 °F (at 12:00 PM)
Minimum temperature yesterday: 75 °F (at 4:00 AM)
Average temperature yesterday: 81 °F

High & Low Weather Summary for the Past Weeks

 TemperatureHumidityPressure
High93 °F (Sep 16, 3:00 PM)100% (Sep 12, 11:00 PM)29.92 "Hg (Sep 12, 11:00 PM)
Low73 °F (Sep 14, 12:00 AM)55% (Sep 22, 3:00 PM)29.65 "Hg (Sep 13, 3:00 PM)
Average81 °F85%29.77 "Hg
* Reported Sep 12 2:00 PM — Sep 27 2:00 PM, Udon Thani, Weather by CustomWeather, © 2016

Note: Actual official high and low records may vary slightly from our data, if they occured in-between our weather recording intervals... More about our weather records

Advertising

Udon Thani Weather History for the Previous 24 Hours

Scroll right to see more
 ConditionsComfort  
Time TempWeatherWind HumidityBarometerVisibility
2:00 PM
Tue, Sep 27
90 °FPartly sunny.3 mph67%29.71 "HgN/A
1:00 PM90 °FPartly sunny.3 mph67%29.74 "HgN/A
12:00 PM86 °FPartly sunny.5 mph75%29.77 "HgN/A
11:00 AM86 °FPartly sunny.6 mph75%29.80 "HgN/A
10:00 AM84 °FPartly sunny.8 mph79%29.83 "HgN/A
9:00 AM81 °FPartly sunny.7 mph89%29.83 "HgN/A
8:00 AM79 °FBroken clouds.2 mph89%29.83 "HgN/A
7:00 AM75 °FBroken clouds.2 mph100%29.80 "HgN/A
6:00 AM75 °FPartly sunny.5 mph100%29.80 "HgN/A
5:00 AM75 °FPassing clouds.3 mph100%29.77 "HgN/A
4:00 AM75 °FPassing clouds.2 mph100%29.77 "HgN/A
3:00 AM75 °FPassing clouds.6 mph94%29.77 "HgN/A
2:00 AM75 °FPartly cloudy.9 mph94%29.77 "HgN/A
1:00 AM79 °FClear.2 mph100%29.77 "Hg10 mi
12:00 AM79 °FClear.No wind100%29.80 "Hg10 mi
11:00 PM
Mon, Sep 26
79 °FClear.2 mph100%29.80 "Hg10 mi
10:00 PM81 °FClear.2 mph94%29.80 "Hg10 mi
9:00 PM79 °FPassing clouds.3 mph100%29.77 "HgN/A
8:00 PM79 °FClear.2 mph100%29.74 "Hg10 mi
7:00 PM79 °FPassing clouds.No wind100%29.74 "HgN/A
6:00 PM79 °FScattered clouds.5 mph100%29.71 "HgN/A
5:00 PM81 °FThunderstorms. Scattered clouds.3 mph94%29.68 "HgN/A
4:00 PM84 °FThunderstorms. Broken clouds.7 mph84%29.71 "HgN/A
3:00 PM90 °FPartly sunny.2 mph67%29.68 "HgN/A
Weather by CustomWeather, © 2016

See weather overviewHow to use our weather pages